User: anonymous   Login
Location: Unspecified
(0.0000°N, 0.0000°E)
Time: 05:21:51
(UTC+00:00)
Language:

STARLINK-6308 - Orbit

View from above orbital plane
View from above orbital plane
View from above satellite
View from above satellite

Ground track
Ground track

The orbit is defined by the following mean orbital elements,

1 56534U          26145.38839199 +.00000000 +00000-0 +21066-5 0 00004
2 56534  42.9993 125.1455 0000961 315.8258  44.2517 15.27575970    03
Epoch (UTC): 25 May 2026 09:19:17
Eccentricity: 0.0000961
inclination: 42.9993°
perigee height: 482 km
apogee height: 484 km
right ascension of ascending node: 125.1455°
argument of perigee: 315.8258°
revolutions per day: 15.27575970
mean anomaly at epoch: 44.2517°

The dashed part of the orbit path shows where the satellite is in the earth's shadow,  

DLR